Terminal Aerodrome Forecast
Issued by NWS

Home | Current Version | Previous Version | Text Only | Print | Product List | Glossary On
Versions: 1 2 3 4 5 6 7 8 9 10 11 12
000
FTUS42 TJSJ 080538
TAFISX
TAF
TISX 080538Z 0806/0906 VRB05KT P6SM FEW025
     FM081300 11010KT P6SM FEW030 FEW050
     FM082300 VRB05KT P6SM FEW025=

USA.gov is the U.S. government's official web portal to all federal, state and local government web resources and services.